Ithaca, NY

5:37 PM EST on February 26, 2017 (GMT -0500)
Tompkins County

Weather History for KITH - November, 2012

Change the Weather History Date:

Sunday, November 11, 2012

  Actual Average Record
Temperature  
Mean Temperature 58 °F -  
Max Temperature 68 °F 48 °F 69 °F (1996)
Min Temperature 48 °F 32 °F 15 °F (1961)
Degree Days  
Heating Degree Days 7    
Growing Degree Days 8 (Base 50)    
Moisture  
Dew Point 37 °F    
Average Humidity 49    
Maximum Humidity 62    
Minimum Humidity 35    
Precipitation  
Precipitation 0.00 in - - ()
Sea Level Pressure  
Sea Level Pressure 30.33 in    
Wind  
Wind Speed 11 mph (SSE)    
Max Wind Speed 20 mph    
Max Gust Speed 20 mph    
Visibility 10 miles    
Events      
Averages and records for this station are not official NWS values.
T = Trace of Precipitation, MM = Missing Value Source: NWS Daily Summary

Daily Weather History Graph

Daily Weather History Graph

Search for Another Location

Airport or City:

Trip Planner

Search our weather history database for the weather conditions in past years. The results will help you decide how hot, cold, wet, or windy it might be!

Date:

Astronomy

Nov. 11, 2012 Rise Set
Actual Time 6:52 AM EST 4:46 PM EST
Civil Twilight 6:22 AM EST 5:16 PM EST
Nautical Twilight 5:48 AM EST 5:50 PM EST
Astronomical Twilight 5:15 AM EST 6:23 PM EST
Moon 4:01 AM EST (11/11) 3:11 PM EST (11/11)
Length of Visible Light 10h 54m
Length of Day
9h 54m
Waning Crescent, 7% of the Moon is Illuminated
Nov 11
Waning Crescent
Nov 13
New
Nov 20
First Quarter
Nov 28
Full
Dec 6
Last Quarter

Hourly Weather History & Observations

Time (EST) Temp. Dew Point Humidity Pressure Visibility Wind Dir Wind Speed Gust Speed Precip Events Conditions
12:56 AM 48.9 °F 36.0 °F 61% 30.28 in 10.0 mi SSE 12.7 mph - N/A   Overcast
1:56 AM 48.9 °F 36.0 °F 61% 30.31 in 10.0 mi SSE 9.2 mph - N/A   Overcast
2:56 AM 50.0 °F 36.0 °F 59% 30.30 in 10.0 mi SSE 10.4 mph - N/A   Overcast
3:56 AM 50.0 °F 36.0 °F 59% 30.31 in 10.0 mi SSE 8.1 mph - N/A   Overcast
4:56 AM 50.9 °F 34.9 °F 54% 30.34 in 10.0 mi SE 6.9 mph - N/A   Overcast
5:56 AM 50.0 °F 36.0 °F 59% 30.34 in 10.0 mi SE 9.2 mph - 0.00 in   Overcast
6:23 AM 48.2 °F 35.6 °F 62% 30.33 in 10.0 mi ESE 6.9 mph - N/A   Scattered Clouds
6:56 AM 48.9 °F 36.0 °F 61% 30.36 in 10.0 mi SE 4.6 mph - N/A   Scattered Clouds
7:56 AM 52.0 °F 36.0 °F 54% 30.38 in 10.0 mi SSE 9.2 mph - N/A   Mostly Cloudy
8:56 AM 54.0 °F 36.9 °F 52% 30.38 in 10.0 mi SSE 9.2 mph - N/A   Mostly Cloudy
9:56 AM 55.9 °F 37.9 °F 51% 30.39 in 10.0 mi SSE 9.2 mph - N/A   Scattered Clouds
10:56 AM 57.9 °F 38.8 °F 49% 30.37 in 10.0 mi SSE 9.2 mph - N/A   Mostly Cloudy
11:56 AM 61.9 °F 38.8 °F 43% 30.35 in 10.0 mi South 12.7 mph - N/A   Overcast
12:56 PM 64.9 °F 41.9 °F 43% 30.32 in 10.0 mi SSE 10.4 mph - N/A   Mostly Cloudy
1:56 PM 68.9 °F 41.0 °F 36% 30.30 in 10.0 mi South 13.8 mph - N/A   Clear
2:56 PM 68.0 °F 41.0 °F 37% 30.30 in 10.0 mi SSE 9.2 mph - N/A   Clear
3:56 PM 65.8 °F 39.9 °F 39% 30.30 in 10.0 mi South 12.7 mph - N/A   Clear
4:56 PM 63.9 °F 36.9 °F 37% 30.31 in 10.0 mi SSE 16.1 mph - N/A   Clear
5:56 PM 63.0 °F 34.9 °F 35% 30.32 in 10.0 mi South 12.7 mph - N/A   Clear
6:56 PM 61.9 °F 34.0 °F 35% 30.33 in 10.0 mi South 17.3 mph - N/A   Clear
7:56 PM 61.0 °F 34.9 °F 38% 30.33 in 10.0 mi SSE 19.6 mph - N/A   Clear
8:56 PM 57.9 °F 36.0 °F 44% 30.34 in 10.0 mi South 13.8 mph 19.6 mph N/A   Clear
9:56 PM 56.8 °F 36.9 °F 47% 30.34 in 10.0 mi SSE 16.1 mph - N/A   Clear
10:56 PM 54.9 °F 36.9 °F 51% 30.32 in 10.0 mi SSE 15.0 mph - N/A   Clear
11:56 PM 54.9 °F 37.9 °F 53% 30.31 in 10.0 mi SSE 15.0 mph - N/A   Clear